Safety.Discipline.Integrity

Call Now: (805) 469.3343

This email address is being protected from spambots. You need JavaScript enabled to view it. This email address is being protected from spambots. You need JavaScript enabled to view it.

icon fb   youtube 50

Phantom Aviation

Phantom Aviation is the premier Private Flight Academy in Southern California. We teach our students utilizing state of the art training techniques that leverage natural learning abilities to ensure our pilots become the safest pilots in the sky. This all starts on the ground where we train and specialize in flight safety utilizing our integrated pilot training techniques and the most advanced flight training materials in the industry. In the air we use our legendary SISO-SBTTM scenario based training that demands students fully apply their training in order to advance to the next lesson. At Phantom, we not only teach to FAA test standards, we go above and beyond providing our pilots with the most real world experience that can be garnered in flight training. Phantom pilot graduates are in a class of their own; the Phantom Elite.

At Phantom Aviation we have excellent aircraft under our maintenance program that sacrifices nothing to ensure your safety, competitive rates, superior training, and experienced professional instructors who are dedicated to help you realize your dream of becoming Phantom Elite.

Schedulepointe

User Name: Password :

Airport Diagram

Latest Weather

  • KCMA METAR Aug 31, 2014 | 17:55 pm

    KCMA 312255Z 22009KT 10SM CLR 28/18 A2976 RMK AO2 SLP084 T02830183

    Read more...
  • KOXR METAR Aug 31, 2014 | 17:51 pm

    KOXR 312251Z 23008KT 9SM CLR 25/19 A2977 RMK AO2 SLP079 T02500194

    Read more...
Go to top